Terminal Aerodrome Forecast
Issued by NWS Dodge City, KS

Home | Current Version | Previous Version | Graphics & Text | Print | Product List | Glossary Off
Versions: 1 2 3 4 5 6 7 8 9 10 11 12 13 14 15 16

000
FTUS43 KDDC 171100
TAFDDC
TAF
KDDC 171137Z 1712/1812 04011KT P6SM OVC070
      TEMPO 1712/1716 6SM -RA BR BKN040
     FM171800 15010KT P6SM SCT100=

USA.gov is the U.S. government's official web portal to all federal, state and local government web resources and services.